Regional Weather Roundup
Issued by NWS

Home | Current Version | Previous Version | Graphics & Text | Print | Product List | Glossary On
Versions: 1 2 3 4 5 6 7 8 9 10 11 12 13 14 15 16 17 18 19 20 21 22 23 24 25 26 27 28 29 30 31 32 33 34 35 36 37 38 39 40 41 42 43 44 45 46 47 48 49 50
000
ASUS43 KLOT 090203
RWRIL

ILLINOIS REGIONAL WEATHER ROUNDUP
NATIONAL WEATHER SERVICE CHICAGO/ROMEOVILLE IL
800 PM CST MON FEB 08 2016

NOTE: "FAIR" INDICATES FEW OR NO CLOUDS BELOW 12,000 FEET WITH NO
SIGNIFICANT WEATHER AND/OR OBSTRUCTIONS TO VISIBILITY.

* THESE STATIONS ARE NOT UNDER NWS QUALITY CONTROL. THEY ALSO MAY NOT
  REPORT WEATHER SUCH AS PRECIPITATION OR FOG.

ILZ001-002-007-009-015-016-024-090300-
NORTHWEST ILLINOIS

CITY           SKY/WX    TMP DP  RH WIND       PRES   REMARKS
MOLINE         CLOUDY    18   9  68 NW23G32   29.88S WCI   0
STERLING*      CLOUDY    21  10  63 NW15      29.80S WCI   8
$$

ILZ003-004-008-010-011-017-018-090300-
NORTH CENTRAL ILLINOIS

CITY           SKY/WX    TMP DP  RH WIND       PRES   REMARKS
ROCKFORD       CLOUDY    23  14  68 NW16      29.80S WCI  10
FREEPORT*      CLOUDY    21  12  69 NW16G23   29.81S WCI   7
DE KALB*       CLOUDY    23  18  78 NW13G20   29.77R WCI  12
$$

ILZ005-006-012>014-019>023-090300-
NORTHEAST ILLINOIS

CITY           SKY/WX    TMP DP  RH WIND       PRES   REMARKS
CHICAGO-OHARE  CLOUDY    25  18  74 NW16      29.74S WCI  12
CHICAGO-MIDWAY FLURRIES  26  20  77 NW10      29.75S WCI  16
AURORA         CLOUDY    25  18  74 W15       29.77S WCI  13
LANSING*       FLURRIES  27  21  78 W10       29.74F WCI  17
WAUKEGAN       CLOUDY    24  19  81 NW9G18    29.72S WCI  14
DUPAGE AIRPORT LGT SNOW  24  17  74 NW14      29.75S WCI  12
WHEELING       CLOUDY    25  19  78 NW13      29.75S WCI  14
NORTHERLY ISL    N/A     27  21  78 W9          N/A  WCI  18
$$

LMZ740>746-090300-
SOUTHERN LAKE MICHIGAN

STATION/POSITION SKY/WX   TEMP    WIND        PRES    VSBY  WAVE
                          AIR SEA DIR/SP/G                  HT/PER
                          (F)     (DEG/KT/KT) (MB)    (MI)  (FT/S)
HARRISON CRIB              28     280/ 12/ 14   N/A
BURNHAM HARBOR             27     260/  6/ 14   N/A
CALUMET HARBOR             27     260/  8/ 14 1006.7R
BURNS HARBOR               29     290/ 15/ 18 1007.5S
MICHIGAN CITY              28     250/ 17/ 19   N/A
$$

ILZ025>027-034>036-040-047-049-050-058-095>099-090300-
WEST-CENTRAL ILLINOIS

CITY           SKY/WX    TMP DP  RH WIND       PRES   REMARKS
QUINCY         CLOUDY    19  11  70 NW17G28   29.95S WCI   4
MACOMB*        CLOUDY    18  12  77 NW18G26   29.94S WCI   3
$$

ILZ028>032-037-038-041>044-048-051>054-059>061-090300-
CENTRAL ILLINOIS

CITY           SKY/WX    TMP DP  RH WIND       PRES   REMARKS
BLOOMINGTON    FLURRIES  20  16  84 NW16      29.83F WCI   6
DECATUR        LGT SNOW  20  14  77 W10       29.86F WCI   9
PEORIA         CLOUDY    20  11  68 NW15G25   29.87S WCI   6
LINCOLN*       FLURRIES  20  15  79 W8G16     29.87F WCI  11
SPRINGFIELD    FLURRIES  20  13  74 NW14G22   29.90F WCI   7
TAYLORVILLE    NOT AVBL
$$

ILZ033-039-045-046-055>057-062-063-090300-
EAST-CENTRAL ILLINOIS

CITY           SKY/WX    TMP DP  RH WIND       PRES   REMARKS
CHAMPAIGN      LGT SNOW  20  15  81 W18       29.83F WCI   5
MATTOON        FLURRIES  20  14  77 W21       29.85F WCI   4
$$

ILZ079-100>102-090300-
SOUTHWEST ILLINOIS

CITY           SKY/WX    TMP DP  RH WIND       PRES   REMARKS
ALTON          CLOUDY    21  14  73 NW16G26   29.95S WCI   7
BELLEVILLE     FLURRIES  23  16  74 NW15      29.93S WCI  10
CAHOKIA*       CLOUDY    25  15  66 NW16G28   29.96S WCI  12
SPARTA*        FLURRIES  24  19  80 W12G18    29.95F WCI  13
$$

ILZ064>066-069>071-074>076-080>082-084>086-088>090-092>094-090300-
SOUTH-CENTRAL ILLINOIS

CITY           SKY/WX    TMP DP  RH WIND       PRES   REMARKS
CARBONDALE     FLURRIES  25  18  74 NW9       29.95F WCI  15
MARION         LGT SNOW  27  21  80 NW3       29.95F
MT. VERNON     CLOUDY    23  12  63 W6        29.93S WCI  16
CENTRALIA*     LGT SNOW  24  19  84 W13       29.92S WCI  12
SALEM*         FLURRIES  24  17  75 NW9       29.91F WCI  14
$$

ILZ067-068-072-073-078-083-087-091-090300-
SOUTHEAST ILLINOIS

CITY           SKY/WX    TMP DP  RH WIND       PRES   REMARKS
LAWRENCEVILLE  LGT SNOW  22  17  81 W12       29.89F WCI  10
HARRISBURG*    FLURRIES  25  19  76 NW14G20   29.94S WCI  13
ROBINSON*      LGT SNOW  20  18  90 W13       29.89S WCI   8
CARMI*         LGT SNOW  23  20  89 NW12G18   29.92S WCI  12
$$

ABBREVIATIONS USED IN REMARKS
   TC - TEMPERATURE IN CELSIUS
  WCI - WIND CHILL INDEX
   HX - HEAT INDEX
  VSB - VISIBILITY
$$




USA.gov is the U.S. government's official web portal to all federal, state and local government web resources and services.